"Pseudo-MPEC" for C913MQ2

Created 2023 Mar 23 14:22:06 UT using Find_Orb

Click here for an explanation of pseudo-MPECs

 
 Astrometry: 
     C913MQ2*1C2023 03 18.47509812 45 15.368+25 16 11.68   ~3IC7 19.96GVNEOCPG96
     C913MQ2 1C2023 03 18.48023212 45 26.694+25 17 33.47   ~3IC7 19.76GVNEOCPG96
     C913MQ2 1C2023 03 18.48536712 45 38.081+25 18 55.26   ~3IC7 19.69GVNEOCPG96
     C913MQ2 1C2023 03 18.49050712 45 49.356+25 20 16.62   ~3IC7 20.80GVNEOCPG96
     C913MQ2 1C2023 03 18.50117712 46 13.429+25 23 09.38   ~3ICM 21.17GVNEOCPG96
     C913MQ2 1C2023 03 18.50217012 46 15.654+25 23 24.65   ~3ICM 20.23GVNEOCPG96
     C913MQ2 1C2023 03 18.50241112 46 16.187+25 23 28.32   ~3ICM 20.39GVNEOCPG96

Station data:
(G96) Mt. Lemmon Survey  (N32.442751 W110.788720)  US/Arizona.  Observers T.
   A. Pruyne, B. M. Africano, E. J. Christensen, G. A. Farneth, D. C. Fuls,
   A. R. Gibbs, A. D. Grauer, H. Gröller, J. A. Johnson, R. A. Kowalski, S.
   M. Larson, G. J. Leonard, D. Rankin, R. L. Seaman, F. C. Shelly, K. W.
   Wierzchoś. 1.5-m reflector + 10K CCD.

Orbital elements:  C913MQ2
   Perihelion 2023 May 7.96247 TT = 23:05:57 (JD 2460072.46247)
Epoch 2023 Mar 18.0 TT = JDT 2460021.5   Earth MOID: 0.0040   Ma: 0.0082
M 323.34793674                      (J2000 ecliptic)             AutoNEOCP
n   0.71919712     Peri.  228.82857
a   1.23377913     Node    10.02423
e   0.2785135      Incl.    1.29924
P   1.37/500.55d   H   29.18    G   0.15   q 0.89015487  Q 1.57740339
From 7 observations 2023 Mar. 18 (39.3 min); mean residual 0".75
Residuals in arcseconds: 
230318 G96  .18-  .67+    230318 G96  .19-  .96-    230318 G96  .39+  .02+    
230318 G96  .98+  .33+    230318 G96  .95+  .86+    
230318 G96  1.8+  .04-    230318 G96  .58+  .21+    

Ephemerides (geocentric):
Date (UTC) HH   RA             Dec           delta  r     elong  mag
---- --------  ------------   ------------  ------ ------ -----  ---
2023 03 23 14  22 06 59.677   +00 27 20.12  .01344 .98506  30.4 28??
2023 03 23 15  22 07 52.290   +00 17 30.09  .01361 .98491  30.2 28??
2023 03 23 16  22 08 43.611   +00 07 54.58  .01378 .98475  30.1 28??
2023 03 23 17  22 09 33.687   -00 01 26.89  .01395 .98460  29.9 28??
2023 03 23 18  22 10 22.560   -00 10 34.80  .01412 .98444  29.7 28??
2023 03 23 19  22 11 10.273   -00 19 29.62  .01429 .98429  29.6 28??
2023 03 23 20  22 11 56.867   -00 28 11.78  .01446 .98413  29.4 28??
2023 03 23 21  22 12 42.378   -00 36 41.70  .01463 .98398  29.3 28??
2023 03 23 22  22 13 26.845   -00 44 59.78  .01480 .98382  29.2 28??
2023 03 23 23  22 14 10.301   -00 53 06.41  .01497 .98367  29.0 28??
2023 03 24 00  22 14 52.781   -01 01 01.96  .01515 .98351  28.9 28??
2023 03 24 01  22 15 34.316   -01 08 46.78  .01532 .98336  28.8 28??
2023 03 24 02  22 16 14.937   -01 16 21.22  .01549 .98320  28.7 28??
2023 03 24 03  22 16 54.673   -01 23 45.61  .01566 .98305  28.5 28??
2023 03 24 04  22 17 33.553   -01 31 00.25  .01584 .98289  28.4 28??
2023 03 24 05  22 18 11.605   -01 38 05.45  .01601 .98274  28.3 28??
2023 03 24 06  22 18 48.852   -01 45 01.50  .01618 .98259  28.2 28??
2023 03 24 07  22 19 25.322   -01 51 48.68  .01636 .98243  28.1 29??
2023 03 24 08  22 20 01.037   -01 58 27.26  .01653 .98228  28.0 29??
2023 03 24 09  22 20 36.021   -02 04 57.50  .01670 .98212  27.9 29??
2023 03 24 10  22 21 10.295   -02 11 19.64  .01688 .98197  27.8 29??
2023 03 24 11  22 21 43.881   -02 17 33.93  .01705 .98181  27.8 29??
2023 03 24 12  22 22 16.799   -02 23 40.58  .01723 .98166  27.7 29??
2023 03 24 13  22 22 49.069   -02 29 39.83  .01740 .98151  27.6 29??
2023 03 24 14  22 23 20.710   -02 35 31.89  .01758 .98135  27.5 29??
2023 03 24 15  22 23 51.739   -02 41 16.97  .01775 .98120  27.4 29??
2023 03 24 16  22 24 22.175   -02 46 55.25  .01793 .98105  27.4 29??
2023 03 24 17  22 24 52.034   -02 52 26.93  .01810 .98089  27.3 29??
2023 03 24 18  22 25 21.332   -02 57 52.20  .01828 .98074  27.2 29??
2023 03 24 19  22 25 50.085   -03 03 11.24  .01845 .98059  27.2 29??
2023 03 24 20  22 26 18.308   -03 08 24.20  .01863 .98043  27.1 29??
2023 03 24 21  22 26 46.016   -03 13 31.27  .01880 .98028  27.0 29??
2023 03 24 22  22 27 13.222   -03 18 32.59  .01898 .98013  27.0 29??
2023 03 24 23  22 27 39.940   -03 23 28.32  .01915 .97997  26.9 29??
2023 03 25 00  22 28 06.183   -03 28 18.62  .01933 .97982  26.9 29??
2023 03 25 01  22 28 31.964   -03 33 03.62  .01951 .97967  26.8 29??
2023 03 25 02  22 28 57.295   -03 37 43.45  .01968 .97952  26.8 29??
2023 03 25 03  22 29 22.187   -03 42 18.27  .01986 .97936  26.7 29??
2023 03 25 04  22 29 46.652   -03 46 48.19  .02003 .97921  26.7 29??
2023 03 25 05  22 30 10.701   -03 51 13.33  .02021 .97906  26.6 29??
2023 03 25 06  22 30 34.344   -03 55 33.83  .02039 .97891  26.6 29??
2023 03 25 07  22 30 57.592   -03 59 49.80  .02056 .97876  26.6 29??
2023 03 25 08  22 31 20.455   -04 04 01.35  .02074 .97860  26.5 29??
2023 03 25 09  22 31 42.942   -04 08 08.58  .02092 .97845  26.5 29??
2023 03 25 10  22 32 05.062   -04 12 11.61  .02110 .97830  26.5 29??
2023 03 25 11  22 32 26.825   -04 16 10.54  .02127 .97815  26.4 29??
2023 03 25 12  22 32 48.238   -04 20 05.47  .02145 .97800  26.4 29??
2023 03 25 13  22 33 09.312   -04 23 56.49  .02163 .97784  26.4 29??